Wind_Speed
38 30 31 30 30 41 40 38 39 34 36 37 38 43 40 38 38 36 32 31 28 31 31 34 35 34 32 33 33 31 28 27
48 42 36 30 32 36 41 40 40 41 40 39 37 42 42 39 40 37 38 33 31 34 34 36 38 38 34 31 30 28 22 22
51 51 40 32 41 41 38 41 38 41 42 40 37 39 43 42 42 37 40 37 34 36 34 39 39 38 40 35 31 32 30 25
57 60 49 35 43 46 49 42 41 40 41 39 37 39 43 44 43 42 40 40 37 36 37 36 38 39 40 40 39 36 33 34
63 66 59 46 41 44 46 49 45 43 45 45 40 40 45 49 43 43 43 42 39 37 39 37 38 40 42 40 42 42 42 40
67 70 64 53 48 49 54 52 53 50 44 47 45 44 46 46 40 41 46 45 42 42 43 40 41 41 43 42 44 46 46 47
72 72 68 65 53 54 55 56 54 55 54 50 47 47 48 47 48 44 44 45 47 46 45 43 41 42 43 46 42 44 47 48
76 72 74 71 60 55 56 57 56 53 53 53 54 52 52 49 48 45 49 49 49 49 48 46 43 45 46 48 47 48 49 51
83 78 75 70 72 61 55 59 58 56 50 51 48 55 54 53 51 49 50 51 50 51 52 49 48 47 48 49 49 49 50 51
85 84 83 76 73 67 61 63 61 63 61 57 40 45 50 49 49 49 49 49 51 49 50 50 50 51 52 52 53 52 53 55
86 82 78 75 71 71 63 68 68 66 63 56 47 49 48 51 50 52 52 52 53 51 51 53 54 55 55 54 56 59 57 61
90 86 81 79 77 74 69 73 75 69 62 56 51 50 48 49 52 49 58 55 56 55 56 56 58 57 60 56 57 60 61 64
86 86 85 80 76 76 76 77 76 69 58 55 50 50 51 51 51 53 52 58 64 61 58 57 59 59 56 57 59 62 64 66
89 84 88 85 80 77 79 78 74 71 61 57 51 55 56 52 51 55 55 56 58 59 58 55 55 51 55 60 61 64 67 70
93 92 88 83 82 80 81 80 74 74 67 59 56 57 58 57 57 57 55 56 57 56 60 59 58 57 58 60 59 66 70 72
97 93 89 88 80 80 81 78 77 77 72 66 63 60 61 60 63 62 60 55 59 62 60 64 63 64 61 60 62 64 70 75
106 103 97 88 85 85 84 82 80 81 79 72 69 62 62 63 65 64 61 58 57 60 64 65 61 64 62 59 61 64 73 75
116 108 106 100 95 93 88 85 85 84 81 78 74 70 65 68 68 68 64 62 59 59 61 58 61 60 60 58 59 68 74 74
120 119 114 112 112 104 98 90 90 90 90 86 80 74 71 73 70 71 66 64 62 58 61 56 52 61 57 57 63 67 75 81
Wind_Direction
279 270 281 283 290 294 291 289 293 298 301 310 319 317 316 318 325 328 328 329 322 313 302 302 307 310 305 302 299 294 295 297
279 275 285 280 288 291 297 295 295 291 296 299 307 310 311 309 313 320 324 324 322 321 303 298 301 306 309 302 304 296 297 306
276 278 283 284 286 289 295 290 291 289 291 292 294 301 305 305 304 311 317 321 318 323 313 299 296 304 304 299 299 301 294 297
265 270 275 267 281 284 286 289 292 291 288 291 290 294 299 304 303 303 309 315 315 318 318 302 295 297 303 297 296 295 289 291
260 268 269 270 281 284 280 287 289 289 286 286 288 285 293 299 302 298 301 308 313 305 312 312 303 293 299 300 297 296 294 293
259 263 267 273 279 282 286 283 286 288 291 289 289 287 289 293 298 300 298 301 306 309 307 311 309 293 294 299 296 295 296 292
258 263 266 269 274 279 277 281 282 291 293 293 298 294 292 289 293 297 296 295 301 303 307 306 310 304 294 293 295 297 298 297
256 259 265 272 276 276 280 279 282 284 288 294 295 296 290 289 290 291 292 293 296 299 304 304 302 303 301 297 296 294 296 292
259 257 263 267 274 278 281 279 279 281 282 286 291 293 293 288 290 290 290 289 292 295 296 300 301 300 302 303 296 293 295 294
258 257 262 266 269 274 276 276 272 279 278 279 291 297 291 289 291 290 290 288 293 294 292 295 298 298 300 301 299 295 296 294
257 260 262 262 266 272 272 269 275 281 276 274 280 285 292 292 286 290 291 290 289 288 287 293 296 297 297 298 298 297 297 295
257 260 262 263 265 265 264 267 273 283 275 272 276 279 284 289 287 287 290 286 287 287 287 292 294 295 296 297 295 297 298 296
255 259 261 261 260 262 262 266 273 273 271 270 275 281 279 282 279 280 283 286 285 282 285 290 294 292 293 294 294 296 298 297
259 259 259 259 260 261 261 267 268 268 266 270 272 272 278 279 279 276 285 283 281 284 283 289 290 289 294 293 295 296 297 295
256 260 261 260 261 260 261 263 264 266 267 269 270 270 274 277 273 273 280 277 278 283 286 285 288 289 292 291 291 290 292 293
262 261 262 261 260 260 260 259 260 262 266 269 273 271 274 272 272 271 275 278 273 276 277 285 288 289 289 289 289 290 289 291
256 260 258 260 263 260 257 260 262 265 268 271 272 267 269 268 268 273 274 273 275 278 281 282 285 285 288 286 285 289 288 293
250 252 256 257 258 259 260 260 261 263 267 268 270 274 265 264 268 274 270 270 273 277 281 280 282 282 283 286 292 284 285 288
248 249 251 255 258 258 260 260 261 264 268 268 267 267 259 262 267 271 269 270 270 276 280 286 265 284 282 289 282 276 280 285
Height
10817 10824 10825 10823 10817 10809 10810 10808 10806 10808 10804 10799 10797 10793 10788 10786 10785 10781 10778 10774 10771 10768 10766 10763 10760 10757 10754 10749 10745 10742 10739 10736
10801 10808 10816 10815 10811 10807 10801 10803 10803 10799 10799 10796 10792 10789 10785 10781 10778 10776 10772 10768 10765 10762 10759 10756 10753 10750 10748 10744 10740 10737 10734 10731
10783 10784 10799 10802 10799 10797 10799 10794 10794 10792 10791 10789 10786 10784 10780 10776 10772 10769 10766 10761 10757 10756 10752 10748 10745 10743 10741 10739 10736 10732 10727 10724
10772 10770 10783 10792 10794 10791 10787 10786 10784 10784 10783 10781 10779 10776 10771 10769 10766 10762 10758 10755 10751 10748 10745 10741 10738 10736 10733 10731 10729 10726 10723 10718
10761 10756 10767 10777 10781 10782 10780 10777 10775 10774 10773 10772 10772 10769 10763 10760 10758 10755 10751 10748 10745 10742 10737 10734 10730 10727 10725 10722 10720 10717 10715 10711
10749 10746 10750 10762 10767 10768 10770 10769 10764 10763 10764 10760 10761 10759 10755 10750 10748 10746 10744 10739 10736 10733 10728 10726 10722 10719 10716 10713 10710 10707 10705 10703
10735 10735 10739 10746 10756 10758 10757 10757 10754 10749 10749 10750 10748 10748 10744 10741 10739 10736 10733 10731 10727 10723 10719 10716 10713 10709 10707 10704 10701 10697 10694 10690
10725 10726 10720 10723 10736 10743 10747 10745 10742 10741 10739 10738 10739 10736 10732 10730 10727 10725 10722 10719 10717 10713 10710 10706 10703 10699 10696 10692 10689 10686 10682 10678
10708 10711 10710 10710 10712 10726 10730 10729 10731 10731 10731 10730 10729 10726 10720 10717 10715 10713 10711 10707 10705 10702 10700 10697 10693 10689 10685 10682 10678 10674 10671 10667
10690 10696 10699 10703 10702 10708 10715 10713 10715 10718 10721 10720 10720 10716 10712 10707 10703 10700 10698 10695 10692 10690 10688 10686 10682 10677 10673 10670 10666 10661 10658 10653
10666 10675 10684 10687 10692 10692 10696 10692 10699 10703 10705 10706 10709 10706 10703 10698 10693 10689 10686 10684 10681 10678 10675 10673 10669 10665 10661 10658 10654 10650 10645 10641
10652 10654 10662 10670 10676 10677 10676 10672 10678 10689 10688 10691 10693 10694 10692 10689 10684 10680 10675 10671 10668 10666 10663 10660 10656 10653 10649 10645 10641 10637 10632 10627
10637 10643 10642 10648 10655 10658 10657 10657 10659 10669 10673 10676 10677 10678 10678 10677 10673 10668 10662 10658 10656 10653 10651 10648 10643 10640 10636 10632 10628 10623 10618 10612
10611 10619 10624 10631 10633 10637 10637 10639 10643 10647 10656 10659 10663 10662 10662 10661 10659 10656 10651 10646 10643 10640 10638 10636 10632 10627 10623 10619 10613 10608 10602 10597
10592 10597 10603 10613 10616 10619 10618 10619 10624 10627 10634 10643 10646 10647 10647 10645 10642 10641 10639 10634 10631 10627 10624 10622 10619 10614 10609 10605 10601 10595 10588 10580
10568 10577 10582 10588 10599 10602 10603 10605 10607 10608 10616 10625 10629 10630 10629 10628 10625 10623 10622 10619 10615 10616 10612 10607 10604 10599 10596 10591 10585 10580 10572 10565
10533 10539 10546 10567 10574 10577 10579 10586 10589 10590 10597 10606 10610 10612 10610 10610 10608 10607 10605 10604 10602 10598 10598 10594 10591 10586 10582 10576 10570 10564 10555 10550
10505 10516 10520 10533 10543 10549 10558 10563 10567 10568 10577 10582 10588 10592 10591 10589 10590 10590 10590 10589 10587 10585 10579 10578 10575 10573 10567 10560 10554 10546 10539 10535
10481 10488 10498 10508 10514 10526 10535 10542 10544 10546 10553 10561 10564 10566 10566 10565 10569 10569 10570 10571 10569 10567 10564 10560 10557 10555 10549 10544 10538 10531 10524 10519